Location: Poughquag
(41.6090°N, 73.6820°W)
Time: 12:19:14
(UTC-04:00)

A-11 Canister half - Pass Details

Date: 04 June 2020
Orbit: 1527 x 1682 km, 47.3° (Epoch: 06 July)

Event Time Altitude Azimuth Distance (km) Brightness Sun altitude
Rises 04:57:15 0° 195° (SSW) 4,685 11.1 -4.6°
Reaches altitude 10° 05:00:52 10° 184° (S) 3,693 10.6 -4.1°
Maximum altitude 05:08:19 28° 130° (SE) 2,554 10.4 -2.9°
Drops below altitude 10° 05:15:46 10° 76° (ENE) 3,704 12.6 -1.8°
Sets 05:19:21 0° 66° (ENE) 4,701 14.2 -1.2°
